Regional Weather Roundup
Issued by NWS Newport/Morehead, NC

Current Version | Previous Version | Graphics & Text | Print | Product List | Glossary Off
Versions: 1 2 3 4 5 6 7 8 9 10 11 12 13 14 15 16 17 18 19 20 21 22 23 24 25 26 27 28 29 30 31 32 33 34 35 36 37 38 39 40 41 42 43 44 45 46 47 48 49 50

000
ASUS42 KMHX 120322
RWRMHX
WEATHER ROUNDUP FOR EASTERN NORTH CAROLINA
NATIONAL WEATHER SERVICE NEWPORT/MOREHEAD CITY NC
1100 PM EDT FRI JUL 11 2014

NOTE: "FAIR" INDICATES FEW OR NO CLOUDS BELOW 12,000 FEET
WITH NO SIGNIFICANT WEATHER AND/OR OBSTRUCTIONS TO VISIBILITY

NCZ015>017-031-032-045>047-102-103-120400-
NORTH COAST

CITY           SKY/WX    TMP DP  RH WIND       PRES   REMARKS
EDENTON        CLEAR     71  70  95 CALM      30.21S
ELIZABETH CITY CLEAR     73  70  90 CALM      30.21R
KITTY HAWK     MOCLDY    73  71  95 CALM      30.20S FOG
MANTEO         NOT AVBL

$$

NCZ045>047-081-094-103-104-120400-
CENTRAL COAST

CITY           SKY/WX    TMP DP  RH WIND       PRES   REMARKS
FRISCO         LGT RAIN  76  75  97 CALM      30.20S
SWANQUARTER      N/A     75 N/A N/A NE2       30.18S

$$

NCZ095-097-098-100-101-120400-
SOUTHERN COAST

CITY           SKY/WX    TMP DP  RH WIND       PRES   REMARKS
BEAUFORT       MOCLDY    77  74  90 CALM      30.20R
CEDAR ISLAND     N/A     79 N/A N/A NE7       30.24S
JACKSONVILLE   PTCLDY    74  72  93 SW3       30.19S
NEWPORT        NOT AVBL
PINEY ISLAND   MOCLDY    78  74  87 CALM      30.20R
WILMINGTON     MOCLDY    76  73  91 CALM      30.20S


$$

NCZ011>013-027>030-043-044-078>080-089-090>093-098-120400-
COASTAL PLAIN

CITY           SKY/WX    TMP DP  RH WIND       PRES   REMARKS
AHOSKIE        CLEAR     73  70  91 CALM      30.21S
CLINTON        CLEAR     73  73 100 CALM      30.21R FOG
ELIZABETHTOWN  CLEAR     74  74  98 CALM      30.20S
GOLDSBORO      CLEAR     73  72  98 E2        30.18S
GREENVILLE     LGT RAIN  72  72 100 CALM      30.21S
HAVELOCK       PTCLDY    74  71  91 SE3       30.21R
KENANSVILLE    CLEAR     71  70  95 CALM      30.21S FOG
KINSTON        CLEAR     71  70  96 CALM      30.20F FOG
NEW BERN       PTCLDY    76  72  87 CALM      30.21R
RICHLANDS      PTCLDY    73  70  88 CALM      30.20S
ROANOKE RAPIDS NOT AVBL
ROCKY MOUNT    FOG       70  69  97 CALM      30.20S VSB 1/2
WASHINGTON     CLEAR    N/A N/A N/A CALM      30.21R
WHITEVILLE     CLEAR     74  73  96 CALM      30.20S

$$

AMZ130-135-150-152-154-156-158-170-250-252-270-ANZ085-086-088-633-658-670-120400-
MARINE OBSERVATIONS

STATION/POSITION TIME  TEMP    WIND        PRES    WAVE   SWELL
                       AIR SEA DIR/SP/G            HT/PER HT/PER
                 (UTC) (F)     (DEG/KT/KT) (MB)    (FT/S) (FT/S)
CHESAPEAKE LIGHT NOT AVBL
BUOY 44014       0300   74 78   50/  6/  6 1022.3    2/ 8   2/ 8
DUCK             0300   73 71   70/  3/  3 1022.2
2E DUCK          0300                        N/A     2/ 6
OREGON INLET     0300   74 81   50/  2/  3 1022.8
BUOY 44095       0300      74                N/A     2/ 6
HATTERAS CG      0300   77 82   90/  4/  5 1023.0
DIAMOND BUOY     0300          VRB  4/  4  1022.6    2/ 8   2/ 8
17S OCRACOKE INL NOT AVBL
CAPE LOOKOUT     0300   79     270/  5/  5 1022.4
BEAUFORT LAB     0300   78 82  350/  3/  4 1022.1
30 SE NEW RIVER  0300   79 81  250/  6/  8 1023.0    2/ 5   2/ 5
5 SE WRIGHTSVILL 0300   76 81  190/  6/  6 1023.2
FRYING PAN BUOY  NOT AVBL
BUOY 41001       NOT AVBL
BUOY 41002       0156   80 83   80/  4/  6 1023.4    3/ 7   3/ 7
BUOY 41004       0300   80 82  110/  8/ 10 1021.7    2/ 8   2/ 8

$$


USA.gov is the U.S. government's official web portal to all federal, state and local government web resources and services.